WA9AFM Weather Reports


Display with metric or nautical units.
time (UTC)temp
F
wind
direction
speed
MPH
gust
MPH
rain 1hr
in
rain 24hr
in
rain mn
in
humidity
%
barometer
mb
20260507022651 57 199 0.0 10.0 0.00 0.00 0.00 61 1013.8
20260507021824 57 196 0.0 1.0 0.00 0.00 0.00 60 1013.7
20260507021150 57 201 0.0 10.0 0.00 0.00 0.00 60 1013.6
20260507020316 58 194 0.0 3.0 0.00 0.00 0.00 59 1013.6
20260507015651 59 212 2.0 10.0 0.00 0.00 0.00 58 1013.3
20260507014814 59 212 0.0 3.0 0.00 0.00 0.00 56 1013.1
20260507014151 60 210 0.0 10.0 0.00 0.00 0.00 56 1013.0
20260507013331 60 225 0.0 1.0 0.00 0.00 0.00 55 1013.0
20260507012651 61 184 0.0 10.0 0.00 0.00 0.00 55 1012.9
20260507011830 61 208 0.0 2.0 0.00 0.00 0.00 54 1013.0
20260507011150 61 208 0.0 10.0 0.00 0.00 0.00 53 1012.8
20260507010322 61 180 2.0 6.0 0.00 0.00 0.00 53 1012.9
20260507005652 61 202 0.0 10.0 0.00 0.00 0.00 53 1012.7
20260507004823 62 187 0.0 3.0 0.00 0.00 0.00 52 1012.7
20260507004151 62 190 0.0 10.0 0.00 0.00 0.00 51 1012.6
20260507003319 62 190 1.0 5.0 0.00 0.00 0.00 51 1012.6
20260507002650 63 218 1.0 10.0 0.00 0.00 0.00 50 1012.5
20260507001813 63 186 1.0 4.0 0.00 0.00 0.00 49 1012.5
20260507001151 64 202 0.0 10.0 0.00 0.00 0.00 49 1012.2
20260507000331 64 173 2.0 6.0 0.00 0.00 0.00 49 1012.3
20260506235652 65 220 3.0 10.0 0.00 0.00 0.00 48 1012.1
20260506234814 65 198 1.0 6.0 0.00 0.00 0.00 49 1012.1
20260506234151 65 201 1.0 10.0 0.00 0.00 0.00 50 1012.0
20260506233331 64 220 1.0 6.0 0.00 0.00 0.00 49 1012.0
20260506232650 64 196 0.0 10.0 0.00 0.00 0.00 49 1011.9
20260506231852 65 211 1.0 7.0 0.00 0.00 0.00 49 1012.0
20260506231151 65 194 2.0 10.0 0.00 0.00 0.00 48 1011.9
20260506230331 65 298 2.0 8.0 0.00 0.00 0.00 48 1011.9
20260506225650 65 214 4.0 10.0 0.00 0.00 0.00 50 1011.8
20260506224826 65 293 3.0 10.0 0.00 0.00 0.00 49 1011.8
20260506224152 65 89 0.0 10.0 0.00 0.00 0.00 49 1011.6
20260506223345 65 215 1.0 6.0 0.00 0.00 0.00 49 1011.5
20260506222651 65 186 0.0 10.0 0.00 0.00 0.00 51 1011.4
20260506221819 64 220 2.0 10.0 0.00 0.00 0.00 50 1011.6
20260506221150 64 214 5.0 10.0 0.00 0.00 0.00 50 1011.4
20260506220323 64 227 2.0 6.0 0.00 0.00 0.00 50 1011.4
20260506215651 64 272 0.0 10.0 0.00 0.00 0.00 51 1011.4
20260506214843 64 251 5.0 9.0 0.00 0.00 0.00 51 1011.6
20260506214151 64 144 1.0 10.0 0.00 0.00 0.00 52 1011.6
20260506213322 63 206 2.0 9.0 0.00 0.00 0.00 52 1011.7
20260506212650 63 215 2.0 10.0 0.00 0.00 0.00 52 1011.6
20260506211824 63 209 3.0 6.0 0.00 0.00 0.00 53 1011.8
20260506211151 64 190 0.0 10.0 0.00 0.00 0.00 52 1011.9
20260506210323 63 194 0.0 8.0 0.00 0.00 0.00 54 1011.8
20260506205650 63 162 4.0 10.0 0.00 0.00 0.00 55 1011.9
20260506204821 63 279 2.0 10.0 0.00 0.00 0.00 54 1012.0
20260506204152 63 206 5.0 10.0 0.00 0.00 0.00 54 1012.1
20260506203320 62 137 2.0 11.0 0.00 0.00 0.00 55 1012.1
20260506202650 63 167 1.0 10.0 0.00 0.00 0.00 54 1012.2
20260506201824 63 187 2.0 9.0 0.00 0.00 0.00 55 1012.1
20260506201151 63 110 3.0 10.0 0.00 0.00 0.00 55 1012.1
20260506200324 62 276 1.0 10.0 0.00 0.00 0.00 55 1012.2
20260506195650 63 131 3.0 10.0 0.00 0.00 0.00 53 1012.3
20260506194823 63 103 2.0 9.0 0.00 0.00 0.00 53 1012.1
20260506194151 63 232 5.0 10.0 0.00 0.00 0.00 51 1012.1
20260506193327 64 274 4.0 8.0 0.00 0.00 0.00 51 1012.1
20260506192651 64 155 0.0 10.0 0.00 0.00 0.00 51 1012.3
20260506191825 63 171 6.0 10.0 0.00 0.00 0.00 50 1012.4
20260506191150 63 165 3.0 10.0 0.00 0.00 0.00 50 1012.5
20260506190324 64 201 3.0 9.0 0.00 0.00 0.00 50 1012.4
20260506185652 64 202 4.0 10.0 0.00 0.00 0.00 51 1012.4
20260506184827 64 202 4.0 12.0 0.00 0.00 0.00 50 1012.5
20260506184150 63 190 5.0 10.0 0.00 0.00 0.00 51 1012.7
20260506183322 63 205 4.0 10.0 0.00 0.00 0.00 51 1012.7
20260506182650 63 270 5.0 10.0 0.00 0.00 0.00 52 1012.7
20260506181817 63 212 4.0 11.0 0.00 0.00 0.00 51 1012.8
20260506181151 62 299 2.0 10.0 0.00 0.00 0.00 52 1013.0
20260506180318 62 209 4.0 8.0 0.00 0.00 0.00 51 1013.1
20260506175650 61 208 0.0 10.0 0.00 0.00 0.00 53 1013.3
20260506174851 61 312 5.0 10.0 0.00 0.00 0.00 52 1013.3
20260506174152 60 218 5.0 10.0 0.00 0.00 0.00 54 1013.5
20260506173329 60 229 5.0 10.0 0.00 0.00 0.00 54 1013.3
20260506172651 60 195 6.0 10.0 0.00 0.00 0.00 54 1013.3
20260506171821 60 199 7.0 13.0 0.00 0.00 0.00 53 1013.4
20260506171150 59 203 5.0 10.0 0.00 0.00 0.00 55 1013.4
20260506170323 59 158 7.0 15.0 0.00 0.00 0.00 53 1013.5
20260506165651 59 212 6.0 10.0 0.00 0.00 0.00 54 1013.6
20260506164817 58 215 5.0 13.0 0.00 0.00 0.00 56 1013.5
20260506164151 58 179 11.0 10.0 0.00 0.00 0.00 55 1013.8
20260506163316 57 178 5.0 12.0 0.00 0.00 0.00 58 1013.7
20260506162650 57 213 5.0 10.0 0.00 0.00 0.00 59 1013.8
20260506161819 56 200 3.0 11.0 0.00 0.00 0.00 60 1013.8
20260506161151 56 205 2.0 10.0 0.00 0.00 0.00 60 1013.9
20260506160318 56 300 7.0 12.0 0.00 0.00 0.00 61 1013.8
20260506155650 56 217 4.0 10.0 0.00 0.00 0.00 62 1013.5
20260506154816 56 222 5.0 13.0 0.00 0.00 0.00 63 1013.6
20260506154152 56 226 2.0 10.0 0.00 0.00 0.00 65 1013.5
20260506153312 55 293 2.0 8.0 0.00 0.00 0.00 67 1013.4
20260506152651 54 220 6.0 10.0 0.00 0.00 0.00 68 1013.3
20260506151816 53 210 2.0 9.0 0.00 0.00 0.00 71 1013.3
20260506151150 53 190 0.0 10.0 0.00 0.00 0.00 71 1013.1
20260506150314 53 179 3.0 10.0 0.00 0.00 0.00 73 1013.1
20260506145651 52 201 6.0 10.0 0.00 0.00 0.00 72 1012.8
20260506144814 51 195 6.0 12.0 0.00 0.00 0.00 72 1012.7
20260506144150 52 220 6.0 10.0 0.00 0.00 0.00 72 1012.5
20260506143338 51 204 3.0 10.0 0.00 0.00 0.00 75 1012.5
20260506142650 51 154 1.0 10.0 0.00 0.00 0.00 74 1012.5
20260506141815 50 209 4.0 9.0 0.00 0.00 0.00 76 1012.5
20260506141151 50 212 3.0 10.0 0.00 0.00 0.00 78 1012.5
20260506140334 50 212 1.0 7.0 0.00 0.00 0.00 78 1012.7
20260506135650 49 214 3.0 10.0 0.00 0.00 0.00 78 1012.6
20260506134830 49 215 3.0 9.0 0.00 0.00 0.00 78 1013.0
20260506134150 49 208 1.0 10.0 0.00 0.00 0.00 79 1012.8
20260506133313 49 201 3.0 13.0 0.00 0.00 0.00 79 1012.7
20260506132650 49 198 1.0 10.0 0.00 0.00 0.00 80 1012.5
20260506131852 49 222 4.0 12.0 0.00 0.00 0.00 80 1012.6
20260506131151 48 114 0.0 10.0 0.00 0.00 0.00 81 1012.5
20260506130330 48 180 2.0 13.0 0.00 0.00 0.00 82 1012.5
20260506125650 48 140 2.0 10.0 0.00 0.00 0.00 82 1012.0
20260506124834 48 171 2.0 6.0 0.00 0.00 0.00 81 1012.4
20260506124151 48 78 0.0 10.0 0.00 0.00 0.00 81 1012.3
20260506123311 47 181 1.0 7.0 0.00 0.00 0.00 81 1012.2
20260506122651 47 107 0.0 10.0 0.00 0.00 0.00 81 1011.6
20260506121828 47 194 0.0 7.0 0.00 0.00 0.00 81 1011.8
20260506121151 47 150 0.0 10.0 0.00 0.00 0.00 81 1011.4
20260506120326 47 205 1.0 6.0 0.00 0.00 0.00 81 1011.7
20260506115651 47 170 1.0 10.0 0.00 0.00 0.00 81 1011.3
20260506114831 47 211 0.0 5.0 0.00 0.00 0.00 81 1011.5
20260506114150 47 152 1.0 10.0 0.00 0.00 0.00 81 1011.3
20260506113350 47 200 1.0 4.0 0.00 0.00 0.00 81 1011.2
20260506112650 47 212 0.0 10.0 0.00 0.00 0.00 81 1010.8
20260506111829 47 195 1.0 5.0 0.00 0.00 0.00 81 1011.2
20260506111151 47 2 0.0 10.0 0.00 0.00 0.00 81 1010.7
20260506110330 47 193 1.0 7.0 0.00 0.00 0.00 81 1011.4
20260506105650 47 121 0.0 10.0 0.00 0.00 0.00 81 1011.2
20260506104829 47 144 1.0 6.0 0.00 0.00 0.00 81 1011.7
20260506104151 47 182 2.0 10.0 0.00 0.00 0.00 80 1011.2
20260506103325 47 103 0.0 8.0 0.00 0.00 0.00 80 1011.2
20260506102651 48 217 0.0 10.0 0.00 0.00 0.00 79 1010.9
20260506101824 48 77 1.0 6.0 0.00 0.00 0.00 79 1011.4
20260506101150 48 114 2.0 10.0 0.00 0.00 0.00 79 1011.2
20260506100320 48 99 1.0 11.0 0.00 0.00 0.00 78 1011.4
20260506095651 48 134 0.0 10.0 0.00 0.00 0.00 78 1010.8
20260506094818 48 170 0.0 4.0 0.00 0.00 0.00 77 1011.1
20260506094151 48 225 0.0 10.0 0.00 0.00 0.00 77 1010.5
20260506093316 48 218 1.0 7.0 0.00 0.00 0.00 77 1010.7
20260506092651 48 220 1.0 10.0 0.00 0.00 0.00 77 1010.3
20260506091818 48 203 0.0 8.0 0.00 0.00 0.00 77 1010.5
20260506091150 48 200 2.0 10.0 0.00 0.00 0.00 77 1010.2
20260506090316 48 208 1.0 5.0 0.00 0.00 0.00 77 1010.3
20260506085650 48 255 0.0 10.0 0.00 0.00 0.00 77 1009.9
20260506084825 48 120 2.0 7.0 0.00 0.00 0.00 78 1010.2
20260506084151 48 202 0.0 10.0 0.00 0.00 0.00 77 1009.6
20260506083329 48 89 1.0 6.0 0.00 0.00 0.00 78 1009.7
20260506082651 48 203 0.0 10.0 0.00 0.00 0.00 77 1009.1
20260506081820 48 213 0.0 4.0 0.00 0.00 0.00 77 1009.6
20260506081150 48 187 0.0 10.0 0.00 0.00 0.00 77 1008.7
20260506080320 48 237 1.0 6.0 0.00 0.00 0.00 77 1009.0
20260506073312 49 201 0.0 4.0 0.00 0.00 0.00 75 1008.4
20260506072651 48 196 0.0 10.0 0.00 0.00 0.00 75 1008.0
20260506071827 48 202 0.0 4.0 0.00 0.00 0.00 75 1009.0
20260506071151 48 192 0.0 10.0 0.00 0.00 0.00 75 1008.3
20260506070328 49 210 0.0 6.0 0.00 0.00 0.00 75 1008.9
20260506061830 49 239 1.0 5.0 0.00 0.00 0.00 75 1009.0
20260506061151 49 202 0.0 10.0 0.00 0.00 0.00 75 1008.3
20260506060320 49 108 1.0 5.0 0.00 0.00 0.00 75 1008.9
20260506051150 49 181 2.0 10.0 0.00 0.00 0.00 78 1007.9
20260506050349 49 213 1.0 5.0 0.00 0.00 0.00 79 1008.6
20260506044825 49 207 2.0 5.0 0.00 0.00 0.00 79 1008.8
20260506044151 49 199 1.0 10.0 0.00 0.00 0.00 80 1008.2
20260506043324 49 251 2.0 6.0 0.00 0.00 0.00 80 1008.9
20260506042650 49 201 3.0 10.0 0.00 0.00 0.00 80 1007.9
20260506041839 49 219 2.0 6.0 0.00 0.00 0.00 81 1008.8
20260506041151 49 199 2.0 10.0 0.00 0.00 0.00 82 1007.9
20260506040314 49 202 1.0 9.0 0.00 0.00 0.00 82 1009.0
20260506035651 49 108 2.0 10.0 0.00 0.00 0.00 82 1008.0
20260506034840 49 194 1.0 10.0 0.00 0.00 0.00 83 1008.8
20260506034150 49 239 1.0 10.0 0.00 0.00 0.00 83 1007.9
20260506033336 49 197 1.0 8.0 0.00 0.00 0.00 83 1008.6
20260506032651 49 229 2.0 10.0 0.00 0.00 0.00 83 1007.5
20260506031814 49 233 0.0 6.0 0.00 0.00 0.00 84 1008.2
20260506031150 49 191 0.0 10.0 0.00 0.00 0.00 84 1006.9
20260506030331 49 202 1.0 7.0 0.00 0.00 0.00 84 1007.5
20260506025650 49 178 0.0 10.0 0.00 0.00 0.00 84 1006.6
20260506024814 49 108 1.0 11.0 0.00 0.00 0.00 84 1007.7
20260506024151 49 205 1.0 10.0 0.00 0.00 0.00 83 1006.8
20260506023327 49 307 1.0 13.0 0.00 0.00 0.00 83 1007.6